CW1248 Weather Reports


Display with metric or nautical units.
time (UTC)temp
F
wind
direction
speed
MPH
gust
MPH
rain 1hr
in
rain 24hr
in
rain mn
in
humidity
%
barometer
mb
20210923130020 48 215 2.0 5.0 0.00 0.01 0.01 95 1019.7
20210923124539 47 224 2.0 4.0 0.00 0.01 0.01 96 1019.7
20210923123017 46 243 2.0 4.0 0.00 0.01 0.01 96 1019.5
20210923121515 45 236 1.0 4.0 0.00 0.01 0.01 96 1019.6
20210923120056 45 257 2.0 4.0 0.00 0.01 0.01 96 1019.5
20210923114539 45 264 1.0 3.0 0.00 0.02 0.01 96 1019.5
20210923113009 46 238 1.0 4.0 0.01 0.02 0.01 95 1019.4
20210923111508 46 238 2.0 4.0 0.01 0.02 0.01 95 1019.5
20210923110009 46 235 2.0 5.0 0.01 0.02 0.01 96 1019.6
20210923104505 46 243 2.0 5.0 0.01 0.02 0.01 96 1019.7
20210923103003 46 252 3.0 5.0 0.00 0.01 0.00 96 1019.6
20210923101510 45 233 3.0 5.0 0.00 0.01 0.00 96 1019.7
20210923100252 45 142 1.0 4.0 0.00 0.01 0.00 96 1019.6
20210923100006 45 168 1.0 4.0 0.00 0.01 0.00 96 1019.7
20210923094631 45 225 1.0 5.0 0.00 0.01 0.00 96 1019.8
20210923093108 46 213 1.0 3.0 0.00 0.01 0.00 96 1019.9
20210923091620 46 257 2.0 3.0 0.00 0.01 0.00 96 1020.1
20210923090137 47 236 1.0 4.0 0.00 0.01 0.00 96 1020.1
20210923084825 46 252 2.0 3.0 0.00 0.01 0.00 96 1020.1
20210923083116 46 260 1.0 2.0 0.00 0.01 0.00 96 1020.2
20210923081610 46 276 0.0 2.0 0.00 0.01 0.00 96 1020.3
20210923080103 47 142 0.0 2.0 0.00 0.01 0.00 96 1020.3
20210923074603 47 213 1.0 2.0 0.00 0.01 0.00 96 1020.3
20210923073147 47 185 1.0 2.0 0.00 0.01 0.00 96 1020.3
20210923071600 47 185 0.0 3.0 0.00 0.01 0.00 96 1020.5
20210923070057 47 260 1.0 2.0 0.00 0.01 0.00 96 1020.6
20210923064616 48 302 1.0 3.0 0.00 0.01 0.00 95 1020.7
20210923063131 48 276 1.0 2.0 0.00 0.01 0.00 96 1020.7
20210923061601 48 257 1.0 3.0 0.00 0.01 0.00 96 1020.8
20210923060105 49 193 2.0 3.0 0.00 0.01 0.00 96 1020.9
20210923054614 48 220 1.0 2.0 0.00 0.01 0.00 95 1021.1
20210923053054 48 185 0.0 1.0 0.00 0.01 0.00 95 1021.1
20210923051600 48 230 1.0 2.0 0.00 0.01 0.00 95 1021.2
20210923050034 49 276 1.0 2.0 0.00 0.01 0.00 95 1021.2
20210923044531 49 96 1.0 2.0 0.00 0.01 0.01 95 1021.4
20210923043038 49 96 1.0 2.0 0.00 0.01 0.01 95 1021.5
20210923041609 50 128 1.0 2.0 0.00 0.01 0.01 94 1021.6
20210923040038 50 293 0.0 2.0 0.00 0.01 0.01 94 1021.7
20210923034531 50 124 2.0 3.0 0.00 0.01 0.01 94 1021.9
20210923033019 50 204 0.0 3.0 0.00 0.01 0.01 93 1021.8
20210923031549 50 53 0.0 1.0 0.00 0.01 0.01 92 1021.9
20210923030018 51 96 0.0 2.0 0.00 0.01 0.01 92 1022.0
20210923024545 51 257 1.0 2.0 0.00 0.01 0.01 91 1022.0
20210923023016 51 152 0.0 2.0 0.00 0.01 0.01 90 1022.1
20210923021518 51 283 1.0 2.0 0.00 0.01 0.01 89 1022.2
20210923020021 51 96 0.0 1.0 0.00 0.01 0.01 89 1022.2
20210923014515 52 53 0.0 2.0 0.00 0.01 0.01 86 1022.2
20210923013018 53 149 1.0 2.0 0.00 0.01 0.01 86 1022.4
20210923011525 53 142 0.0 1.0 0.00 0.01 0.01 84 1022.3
20210923010029 53 351 1.0 2.0 0.00 0.01 0.01 83 1022.1
20210923004513 54 302 1.0 2.0 0.00 0.01 0.01 83 1022.1
20210923003017 55 8 0.0 2.0 0.00 0.01 0.01 82 1022.1
20210923001531 56 351 1.0 2.0 0.00 0.01 0.01 81 1022.3
20210923000010 58 35 1.0 2.0 0.00 0.01 0.01 77 1022.4
20210922234516 60 20 0.0 2.0 0.00 0.01 0.01 76 1022.4
20210922233007 62 314 1.0 3.0 0.00 0.01 0.01 72 1022.4
20210922231510 63 293 2.0 4.0 0.00 0.01 0.01 63 1022.6
20210922230004 65 307 2.0 4.0 0.00 0.01 0.01 64 1022.7
20210922224509 66 338 2.0 5.0 0.00 0.01 0.01 57 1022.9
20210922223000 67 35 2.0 4.0 0.00 0.01 0.01 49 1022.9
20210922221614 67 309 1.0 4.0 0.00 0.01 0.01 50 1023.0
20210922220143 67 252 3.0 7.0 0.00 0.01 0.01 48 1023.2
20210922214642 68 8 1.0 5.0 0.00 0.01 0.01 48 1023.2
20210922213250 67 276 1.0 7.0 0.00 0.01 0.01 48 1023.4
20210922211615 67 292 5.0 8.0 0.00 0.01 0.01 48 1023.6
20210922210133 68 326 5.0 11.0 0.00 0.01 0.01 50 1023.7
20210922204643 67 290 5.0 8.0 0.00 0.01 0.01 52 1023.7
20210922203249 67 53 3.0 8.0 0.00 0.01 0.01 50 1023.9
20210922201636 67 60 2.0 7.0 0.00 0.01 0.01 51 1024.1
20210922200114 67 338 3.0 8.0 0.00 0.01 0.01 50 1024.2
20210922194626 67 266 7.0 12.0 0.00 0.01 0.01 49 1024.2
20210922193131 67 313 2.0 8.0 0.00 0.01 0.01 49 1024.5
20210922191625 65 285 3.0 8.0 0.00 0.01 0.01 48 1024.8
20210922190115 66 330 4.0 9.0 0.00 0.01 0.01 53 1025.1
20210922184545 66 276 2.0 8.0 0.00 0.01 0.01 49 1025.4
20210922183040 66 324 2.0 6.0 0.00 0.01 0.01 54 1025.5
20210922181552 64 310 2.0 6.0 0.00 0.01 0.01 48 1025.7
20210922180042 64 137 2.0 7.0 0.00 0.01 0.01 58 1025.9
20210922174539 64 252 4.0 7.0 0.00 0.01 0.01 53 1026.1
20210922173035 63 281 3.0 6.0 0.00 0.01 0.01 53 1026.3
20210922171555 63 115 1.0 5.0 0.00 0.01 0.01 53 1026.5
20210922170042 62 53 2.0 6.0 0.00 0.01 0.01 61 1026.8
20210922164546 61 119 1.0 6.0 0.00 0.01 0.01 59 1026.9
20210922163014 61 82 2.0 7.0 0.00 0.01 0.01 65 1027.1
20210922161549 59 173 3.0 7.0 0.00 0.01 0.01 75 1027.3
20210922160006 57 133 3.0 5.0 0.00 0.01 0.01 89 1027.4
20210922154618 54 128 2.0 4.0 0.00 0.01 0.01 95 1027.4
20210922153124 52 70 1.0 3.0 0.00 0.01 0.01 97 1027.4
20210922151649 52 162 1.0 4.0 0.00 0.01 0.01 97 1027.4
20210922150109 52 96 2.0 4.0 0.00 0.01 0.01 98 1027.4
20210922144711 51 225 2.0 3.0 0.00 0.01 0.01 98 1027.3
20210922143123 49 8 1.0 4.0 0.00 0.01 0.01 98 1027.3
20210922141556 49 96 1.0 3.0 0.00 0.01 0.01 97 1027.2
20210922140107 49 247 1.0 2.0 0.00 0.01 0.01 98 1027.2
20210922134601 48 276 0.0 1.0 0.00 0.01 0.01 97 1027.1
20210922133142 47 247 1.0 2.0 0.00 0.01 0.01 97 1027.2
20210922131602 46 247 1.0 3.0 0.00 0.01 0.01 97 1027.2